Tracking 32941 objects as of 15-Jan-2026
HD Live streaming from Space Station
objects crossing your sky now

TOPO 1

Track TOPO 1 now!
10-day predictions
TOPO 1 is classified as:


NORAD ID: 4363
Int'l Code: 1970-025B
Perigee: 1,089.9 km
Apogee: 1,093.3 km
Inclination: 99.9 °
Period: 106.9 minutes
Semi major axis: 7462 km
RCS: 0.1794 m2 (medium)
Launch date: April 8, 1970
Source: United States (US)
Launch site: AIR FORCE WESTERN TEST RANGE (AFWTR)
Your satellite tracking list
Your tracking list is empty




NASA's NSSDC Master Catalog

Two Line Element Set (TLE):
1 04363U 70025B   26014.32684107 -.00000030  00000-0  23402-4 0  9993
2 04363  99.8931 290.2372 0002287  31.0331  84.4572 13.46691671740489
Source of the keplerian elements: AFSPC